SPACEBEENZ-3 (46938 NORAD) Tracking and Keplerian Element Data
This shows tracking and keplerian element data for the satellite.
Feedback or suggestion? Click here.
Element | Value |
Catalog | 46938 |
Name | SPACEBEENZ-3 |
Epoch Orbit | 894 |
Epoch Day | 17.93363349 |
Epoch Year | 2021 |
RAAN | 157.3471 |
Inclination | 97.3739 |
Eccentricity | 0.00176 |
Argument of Perigee | 93.1111 |
Mean Anonmoly | 267.213 |
Mean Motion | 15.21395404 |
Decay Rate | 2.423E-05 |
L1 | 1 46938U 20085K 21017.93363349 .00002423 00000-0 11067-3 0 9995 |
L2 | 2 46938 97.3739 157.3471 0017600 93.1111 267.2130 15.21395404 8944 |
Live tracking and technical data element details for SPACEBEENZ-3 (NORAD 46938). SPACEBEENZ-3 can be tracked NOW for your location showing map with azimuth and elevation plus other details from your city location.
Track the satellite on the map from your city or location and see movement details for azimuth, elevation, latitude, longitude, range, height, and movement on the map or in text.
IsCatalogInMostPopularTable: catalog: 46938, numindb: 23
Update: records affected: 1
GetName: 46938 SPACEBEENZ-3
Hit Count: updated at: Tue, 19 Jan 2021 02:26:59 GMT